DW6222 Weather Reports


time (UTC)temp
C
wind
direction
speed
KPH
gust
KPH
rain 1hr
cm
rain 24hr
cm
rain mn
cm
humidity
%
barometer
mb
20260510153039 5 346 8.0 17.7 0.00 0.00 0.00 72 1017.9
20260510151540 5 355 12.9 22.5 0.00 0.00 0.00 74 1017.7
20260510150053 5 355 16.1 20.9 0.00 0.00 0.00 71 1017.5
20260510144603 5 333 11.3 19.3 0.00 0.00 0.00 75 1017.3
20260510143056 5 342 8.0 19.3 0.00 0.00 0.00 76 1017.1
20260510141544 5 321 14.5 19.3 0.00 0.00 0.00 75 1017.1
20260510140042 5 340 16.1 20.9 0.00 0.00 0.00 76 1016.8
20260510134602 5 5 6.4 16.1 0.00 0.00 0.00 75 1016.6
20260510133043 5 355 9.7 19.3 0.00 0.00 0.00 76 1016.5
20260510131546 4 355 8.0 20.9 0.00 0.00 0.00 78 1016.5
20260510130044 4 348 8.0 16.1 0.00 0.00 0.00 78 1016.3
20260510124543 3 320 12.9 20.9 0.00 0.00 0.00 79 1016.2
20260510123045 3 305 6.4 12.9 0.00 0.00 0.00 82 1015.9
20260510121545 3 308 9.7 12.9 0.00 0.00 0.00 80 1015.5
20260510120046 3 321 8.0 9.7 0.00 0.00 0.00 80 1015.3
20260510114543 3 350 6.4 14.5 0.00 0.00 0.00 80 1015.2
20260510113043 3 352 11.3 16.1 0.00 0.00 0.00 79 1015.0
20260510111551 4 342 16.1 22.5 0.00 0.00 0.00 78 1014.9
20260510110045 4 346 16.1 22.5 0.00 0.00 0.00 77 1014.7
20260510104604 4 0 0.0 6.4 0.00 0.00 0.00 75 1014.3
20260510103044 3 24 3.2 11.3 0.00 0.00 0.00 76 1014.2
20260510101543 3 80 1.6 4.8 0.00 0.00 0.00 82 1013.8
20260510100040 3 80 0.0 0.0 0.00 0.00 0.00 82 1013.5
20260510094545 3 0 0.0 4.8 0.00 0.00 0.00 82 1013.3
20260510093044 3 0 0.0 4.8 0.00 0.00 0.00 82 1013.2
20260510091543 3 80 3.2 6.4 0.00 0.00 0.00 81 1013.1
20260510090053 3 223 0.0 3.2 0.00 0.00 0.00 81 1013.0
20260510084542 3 11 1.6 6.4 0.00 0.00 0.00 81 1012.9
20260510083039 3 0 1.6 4.8 0.00 0.00 0.00 81 1012.8
20260510081542 3 0 0.0 9.7 0.00 0.00 0.00 79 1012.6
20260510080046 3 282 6.4 11.3 0.00 0.00 0.00 77 1012.5
20260510074543 5 0 1.6 4.8 0.00 0.00 0.00 71 1012.3
20260510073044 5 39 1.6 4.8 0.00 0.00 0.00 71 1012.3
20260510071542 4 11 3.2 6.4 0.00 0.00 0.00 72 1012.3
20260510070043 3 0 0.0 3.2 0.00 0.00 0.00 76 1012.1
20260510064539 3 302 3.2 4.8 0.00 0.00 0.00 75 1012.1
20260510063045 4 298 4.8 9.7 0.00 0.00 0.00 73 1012.2
20260510061543 5 254 6.4 9.7 0.00 0.00 0.00 70 1012.2
20260510060051 5 0 0.0 0.0 0.00 0.00 0.00 68 1012.1
20260510054541 5 0 0.0 1.6 0.00 0.00 0.00 67 1012.2
20260510053041 5 33 0.0 6.4 0.00 0.00 0.00 66 1011.9
20260510051611 5 51 4.8 11.3 0.00 0.00 0.00 68 1011.9
20260510050044 4 30 6.4 12.9 0.00 0.00 0.00 70 1011.9
20260510044544 5 314 12.9 16.1 0.00 0.00 0.00 68 1011.8
20260510043107 5 294 12.9 16.1 0.00 0.00 0.00 68 1011.7
20260510041549 5 298 16.1 19.3 0.00 0.00 0.00 66 1011.7
20260510040051 5 293 12.9 16.1 0.00 0.00 0.00 65 1011.5
20260510034550 5 284 14.5 17.7 0.00 0.00 0.00 63 1011.5
20260510033050 5 284 12.9 14.5 0.00 0.00 0.00 66 1011.2
20260510031613 6 299 12.9 16.1 0.00 0.00 0.00 64 1011.2
20260510030045 6 296 12.9 16.1 0.00 0.00 0.00 66 1011.0
20260510024541 5 313 8.0 12.9 0.00 0.00 0.00 68 1010.9
20260510023053 6 346 4.8 14.5 0.00 0.00 0.00 67 1010.8
20260510021546 6 334 4.8 11.3 0.00 0.00 0.00 65 1010.6
20260510020043 6 296 8.0 14.5 0.00 0.00 0.00 63 1010.5
20260510014544 7 323 11.3 16.1 0.00 0.00 0.00 60 1010.2
20260510013042 7 328 14.5 19.3 0.00 0.00 0.00 53 1009.9
20260510011553 8 335 19.3 25.7 0.00 0.00 0.00 54 1009.8
20260510010101 7 340 12.9 19.3 0.00 0.00 0.00 55 1009.6
20260510004538 7 288 3.2 6.4 0.00 0.00 0.00 56 1009.3
20260510003044 8 0 1.6 6.4 0.00 0.00 0.00 55 1009.1
20260510001543 8 241 4.8 8.0 0.00 0.00 0.00 53 1009.0
20260510000048 8 215 4.8 8.0 0.00 0.00 0.00 59 1008.8
20260509234540 8 240 4.8 6.4 0.00 0.00 0.00 54 1008.7
20260509233037 9 0 1.6 4.8 0.00 0.00 0.00 46 1008.5
20260509231552 9 29 3.2 9.7 0.00 0.00 0.00 46 1008.3
20260509230045 9 74 4.8 8.0 0.00 0.00 0.00 45 1008.1
20260509224542 9 9 3.2 8.0 0.00 0.00 0.00 47 1008.1
20260509223043 9 26 6.4 16.1 0.00 0.00 0.00 46 1008.1
20260509221542 8 0 1.6 8.0 0.00 0.00 0.00 47 1008.0
20260509220044 8 0 0.0 6.4 0.00 0.00 0.00 48 1007.8
20260509214541 8 337 6.4 12.9 0.00 0.00 0.00 48 1007.8
20260509213059 8 0 1.6 14.5 0.00 0.00 0.00 52 1007.7
20260509211608 8 30 9.7 20.9 0.00 0.00 0.00 50 1007.7
20260509210044 8 325 11.3 29.0 0.00 0.00 0.00 50 1007.5
20260509204557 8 340 25.7 33.8 0.00 0.00 0.00 49 1007.6
20260509203049 7 26 17.7 35.4 0.00 0.00 0.00 51 1007.4
20260509201546 7 346 29.0 38.6 0.00 0.00 0.00 49 1007.3
20260509200046 7 342 27.4 32.2 0.00 0.00 0.00 50 1007.0
20260509194546 7 5 22.5 40.2 0.00 0.00 0.00 49 1006.8
20260509193046 7 341 19.3 41.8 0.00 0.00 0.00 50 1006.8
20260509191544 7 326 25.7 40.2 0.00 0.00 0.00 51 1006.7
20260509190049 7 336 29.0 43.5 0.00 0.00 0.00 52 1006.6
20260509184547 7 349 38.6 49.9 0.00 0.00 0.00 52 1006.5
20260509183041 7 340 27.4 46.7 0.00 0.00 0.00 51 1006.0
20260509181545 7 342 40.2 49.9 0.00 0.00 0.00 55 1005.9
20260509180041 7 338 33.8 45.1 0.00 0.00 0.00 56 1005.4
20260509174550 7 334 32.2 43.5 0.00 0.00 0.00 55 1005.3
20260509173044 7 317 29.0 40.2 0.00 0.00 0.00 53 1004.9
20260509171545 7 340 29.0 41.8 0.00 0.00 0.00 54 1004.6
20260509170043 7 327 29.0 45.1 0.00 0.00 0.00 54 1004.4
20260509164543 7 327 29.0 48.3 0.00 0.00 0.00 56 1004.2
20260509163050 7 355 30.6 45.1 0.00 0.00 0.00 55 1003.8
20260509161546 7 338 35.4 46.7 0.00 0.00 0.00 55 1003.7
20260509160045 7 346 38.6 48.3 0.00 0.00 0.00 55 1003.5
20260509154542 7 325 43.5 53.1 0.00 0.00 0.00 53 1003.3